Weather Roundup
Issued by NWS Chicago, IL

Home | Current Version | Previous Version | Text Only | Print | Product List | Glossary Off
Versions: 1 2 3 4 5 6 7 8 9 10 11 12 13 14 15 16 17 18 19 20 21 22 23 24 25 26 27 28 29 30 31 32 33 34 35 36 37 38 39 40 41 42 43 44 45 46 47 48 49 50

000
NZUS59 KLOT 051109
HRRLOT

CHICAGO AREA WEATHER ROUNDUP
NATIONAL WEATHER SERVICE CHICAGO/ROMEOVILLE IL
600 AM CDT SAT SEP 05 2015

NOTE: "FAIR" INDICATES FEW OR NO CLOUDS BELOW 12,000 FEET WITH NO
SIGNIFICANT WEATHER AND/OR OBSTRUCTIONS TO VISIBILITY.

* THESE STATIONS ARE NOT UNDER NWS QUALITY CONTROL. THEY ALSO MAY NOT
  REPORT WEATHER SUCH AS PRECIPITATION OR FOG.

ILZ005-006-012>014-019>023-051200-
NORTHEAST ILLINOIS

CITY           SKY/WX    TMP DP  RH WIND       PRES   REMARKS
OHARE          MOCLDY    70  68  93 CALM      30.07S
MIDWAY         PTCLDY    73  66  78 S9        30.07S
AURORA         PTCLDY    68  65  90 CALM      30.08R
LANSING*       PTCLDY    67  65  94 S3        30.09S
JOLIET*        MOCLDY    70  67  91 CALM      30.09S
WAUKEGAN       MOCLDY    67  66  97 CALM      30.06S
DUPAGE AIRPORT PTCLDY    69  66  90 CALM      30.07S
WHEELING       NOT AVBL
KANKAKEE*      MOCLDY    68  66  93 CALM      30.10R THUNDER
MORRIS*        MOCLDY    68  66  93 CALM      30.08R
LEWIS AIRPORT* MOCLDY    69  65  88 S8        30.09R
NORTHERLY IS     N/A     70  68  93 S6          N/A
$$

WIZ051-052-058>065-066-070>072-051200-
SOUTHEAST WISCONSIN

CITY           SKY/WX    TMP DP  RH WIND       PRES   REMARKS
MILWAUKEE      TSTM      65  64  97 E3        30.07S VSB 3/4
KENOSHA*       FOG       65  64  97 E3        30.07F VSB 3/4
RACINE*        CLOUDY    68  66  93 CALM      30.09S FOG
BURLINGTON     CLOUDY    64  63  98 CALM      30.07F FOG
WAUKESHA       CLOUDY    64  64 100 E5        30.09S
WEST BEND      FOG       63  61  94 CALM      30.08S VSB 3/4
$$

INZ001>003-010>013-019-020-051200-
NORTHWEST INDIANA

CITY           SKY/WX    TMP DP  RH WIND       PRES   REMARKS
GARY*          PTCLDY    70  66  88 S5        30.09S
MICHIGAN CITY* NOT AVBL
RENSSELAER*    NOT AVBL
VALPARAISO     PTCLDY    67  64  90 CALM      30.10S
$$

LMZ740>746-051200-
SOUTHERN LAKE MICHIGAN

STATION/POSITION TIME  SKY/WX   TEMP WIND        PRES    VSBY
                                AIR  DIR/SP/G
                 (UTC)          (F)  (DEG/KT/KT) (MB)    (MI)
HARRISON CRIB    1000            72  160/  4/  6   N/A
BURNHAM HARBOR   1100            70  180/  6/  8   N/A
CALUMET HARBOR   1000            72  170/  3/  4   N/A
BURNS HARBOR     1000            71  180/  8/ 11 1019.0S
MICHIGAN CITY    1000            70  140/ 13/ 15   N/A
$$

ABBREVIATIONS USED IN REMARKS
   TC - TEMPERATURE IN CELSIUS
  WCI - WIND CHILL INDEX
   HX - HEAT INDEX
  VSB - VISIBILITY
$$



USA.gov is the U.S. government's official web portal to all federal, state and local government web resources and services.